Tracking 29892 objects as of 21-Nov-2024
HD Live streaming from Space Station
objects crossing your sky now

ONEWEB-0601

Track ONEWEB-0601 now!
10-day predictions
ONEWEB-0601 is classified as:


NORAD ID: 54665
Int'l Code: 2022-166Z
Perigee: 1,183.3 km
Apogee: 1,186.5 km
Inclination: 87.9 °
Period: 108.9 minutes
Semi major axis: 7555 km
RCS: Unknown
Launch date: December 8, 2022
Source: United Kingdom (UK)
Launch site: AIR FORCE EASTERN TEST RANGE (AFETR)
Your satellite tracking list
STARLINK-5644
Track 1 satellite(s)




NASA's NSSDC Master Catalog

Two Line Element Set (TLE):
1 54665U 22166Z   24325.10401072  .00000068  00000-0  13235-3 0  9995
2 54665  87.9321 358.3498 0002149 106.3302 253.8069 13.21823011 95862
Source of the keplerian elements: AFSPC